Regional Weather Roundup
Issued by NWS

Home | Current Version | Previous Version | Text Only | Print | Product List | Glossary On
Versions: 1 2 3 4 5 6 7 8 9 10 11 12 13 14 15 16 17 18 19 20 21 22 23 24 25 26 27 28 29 30 31 32 33 34 35 36 37 38 39 40 41 42 43 44 45 46 47 48 49 50
000
ASUS43 KOAX 291710
RWRNE

WEATHER ROUNDUP FOR NEBRASKA
NATIONAL WEATHER SERVICE OMAHA NE
1200 PM CDT TUE JUL 29 2014

NOTES: SATELLITE DATA IS BEING USED TO AUGMENT CLOUD COVER ABOVE
       12000 FEET.
       "FAIR" INDICATES FEW OR NO CLOUDS BELOW 12,000 FEET WITH NO
       SIGNIFICANT WEATHER AND/OR OBSTRUCTIONS TO VISIBILITY.

  * THESE STATIONS DO NOT REPORT WEATHER SUCH AS RAIN...SNOW OR FOG.

NEZ001>004-019>022-054>056-291800-
NEBRASKA PANHANDLE

CITY           SKY/WX    TMP DP  RH WIND       PRES   REMARKS
SCOTTSBLUFF    CLOUDY    67  58  72 VRB6      30.27F
ALLIANCE       MOSUNNY   76  56  49 E13       30.25F
CHADRON        PTSUNNY   73  58  59 E12       30.23S
KIMBALL        SUNNY     74  60  62 E9        30.26F
SIDNEY         MOSUNNY   76  57  51 E8        30.27S
$$

NEZ057>060-069>072-079>082-291800-
SOUTHWEST NEBRASKA

CITY           SKY/WX    TMP DP  RH WIND       PRES   REMARKS
NORTH PLATTE   PTSUNNY   71  57  61 SE8       30.24S
IMPERIAL       CLOUDY    73  58  59 SE12      30.23F
LEXINGTON      PTSUNNY   73  57  57 SE9       30.24S
MCCOOK         SUNNY     78  58  49 E9        30.21F
OGALLALA       SUNNY     73  58  59 SE9       30.23F
$$

NEZ005>010-023>029-035>040-094-291800-
NORTH CENTRAL NEBRASKA

CITY           SKY/WX    TMP DP  RH WIND       PRES   REMARKS
VALENTINE      PTSUNNY   75  51  43 CALM      30.24F
AINSWORTH      PTSUNNY   74  54  50 SE3       30.25F
BROKEN BOW     PTSUNNY   72  58  61 SE6       30.25S
O`NEILL        MOSUNNY   75  49  40 NW6       30.24F
ORD            MOSUNNY   72  57  59 CALM      30.23F
THEDFORD       PTSUNNY   72  58  60 S6        30.26S
$$

NEZ041-046>049-061>064-073>077-083>087-291800-
SOUTH CENTRAL NEBRASKA

CITY           SKY/WX    TMP DP  RH WIND       PRES   REMARKS
GRAND ISLAND   PTSUNNY   73  53  49 SE5       30.25S
AURORA         SUNNY     74  55  52 CALM      30.24F
HASTINGS       PTSUNNY   71  54  54 S5        30.24F
HEBRON         CLOUDY    71  55  56 CALM      30.24S
HOLDREGE       PTSUNNY   72  55  55 SE8       30.23F
KEARNEY *      PTSUNNY   72  55  56 E7        30.25S
YORK           SUNNY     73  54  49 SW3       30.24S
$$

NEZ011>018-030>034-042>045-291800-
NORTHEAST NEBRASKA

CITY           SKY/WX    TMP DP  RH WIND       PRES   REMARKS
NORFOLK        MOSUNNY   76  51  41 NW7       30.24S
ALBION         MOSUNNY   73  51  47 W3        30.24F
BLAIR          PTSUNNY   72  56  57 W5        30.21F
COLUMBUS *     MOSUNNY   75  55  50 NW8       30.23F
FREMONT        PTSUNNY   76  51  42 NW6       30.22S
TEKAMAH        PTSUNNY   75  57  53 VRB5      30.22S
WAYNE          MOSUNNY   71  59  64 NW3       30.24S
$$

NEZ050>053-065>068-078-088>093-291800-
SOUTHEAST NEBRASKA

CITY           SKY/WX    TMP DP  RH WIND       PRES   REMARKS
LINCOLN        PTSUNNY   80  53  39 MISG      30.22F
OMAHA EPPLEY   PTSUNNY   76  56  49 N8        30.21S
BEATRICE       MOSUNNY   74  58  56 W7        30.22S
FALLS CITY     MOSUNNY   78  58  49 VRB5      30.19F
NEBRASKA CITY  PTSUNNY   74  55  50 CALM      30.21S
PLATTSMOUTH    MOSUNNY   74  54  49 W5        30.21S
$$

NEZ044-045-051>053-067-291800-
OMAHA AREA

CITY           SKY/WX    TMP DP  RH WIND       PRES   REMARKS
OMAHA EPPLEY   PTSUNNY   76  56  49 N8        30.21S
BLAIR          PTSUNNY   72  56  57 W5        30.21F
FREMONT        PTSUNNY   76  51  42 NW6       30.22S
MILLARD        PTSUNNY   74  56  53 NW7       30.21S
OFFUTT AFB     MOSUNNY   75  60  58 N5        30.20F
PLATTSMOUTH    MOSUNNY   74  54  49 W5        30.21S
WAHOO          FAIR      77  54  44 NE5       30.22S
$$


USA.gov is the U.S. government's official web portal to all federal, state and local government web resources and services.